CZ-2D R/B

Last updated on Sat Dec 13 2025 00:02:16 GMT+0000 (Coordinated Universal Time)

1 28738U 05024B 25346.01325468 .00038844 00000+0 61921-3 0 9996 2 28738 97.3642 353.4406 0005596 8.8307 351.3043 15.53128488126145
UTC large
Height (km)
Speed (km/s)
/
Latitude / Longitude
Inclination (degrees)
Orbital Period (minutes)
Azimuth
Elevation
Range (km)
Doppler Factor

Next 0 passes for location: London (51.5072 / 0.1276)

Sorry there are no passes over London.